Kokomo, IN

7:58 AM EDT on August 30, 2016 (GMT -0400)
Kokomo Municipal

Weather History for KOKK - November, 2012

Change the Weather History Date:

Monday, November 12, 2012

  Actual Average (KGUS) Record (KGUS)
Temperature  
Mean Temperature 44 °F -  
Max Temperature 55 °F 48 °F 71 °F (2010)
Min Temperature 32 °F 33 °F 17 °F (1996)
Degree Days  
Heating Degree Days 22    
Moisture  
Dew Point 32 °F    
Average Humidity 79    
Maximum Humidity 94    
Minimum Humidity 60    
Precipitation  
Precipitation 0.49 in - - ()
Sea Level Pressure  
Sea Level Pressure 30.15 in    
Wind  
Wind Speed 15 mph (West)    
Max Wind Speed 25 mph    
Max Gust Speed 31 mph    
Visibility 9 miles    
Events      
Averages and records for this station are not official NWS values.
T = Trace of Precipitation, MM = Missing Value Source: NWS Daily Summary

Daily Weather History Graph

Daily Weather History Graph

Search for Another Location

Airport or City:

Trip Planner

Search our weather history database for the weather conditions in past years. The results will help you decide how hot, cold, wet, or windy it might be!

Date:

Astronomy

Nov. 12, 2012 Rise Set
Actual Time 6:27 AM CST 4:28 PM CST
Civil Twilight 5:58 AM CST 4:57 PM CST
Nautical Twilight 5:25 AM CST 5:30 PM CST
Astronomical Twilight 4:53 AM CST 6:02 PM CST
Moon 4:52 AM CST (11/12) 3:33 PM CST (11/12)
Length of Visible Light 10h 59m
Length of Day
10h 01m
Waning Crescent, 2% of the Moon is Illuminated
Nov 12
Waning Crescent
Nov 13
New
Nov 20
First Quarter
Nov 28
Full
Dec 6
Last Quarter

Hourly Weather History & Observations

Time (CST) Temp. Windchill Dew Point Humidity Pressure Visibility Wind Dir Wind Speed Gust Speed Precip Events Conditions
12:15 AM 55.4 °F - 51.8 °F 88% 29.95 in 6.0 mi SSW 18.4 mph 23.0 mph 0.01 in   Overcast
12:35 AM 55.4 °F - 51.8 °F 88% 29.95 in 8.0 mi SW 15.0 mph 19.6 mph 0.05 in   Overcast
12:55 AM 51.8 °F - 48.2 °F 88% 29.97 in 7.0 mi WNW 12.7 mph - 0.11 in   Overcast
1:15 AM 51.8 °F - 48.2 °F 88% 29.97 in 4.0 mi West 9.2 mph - 0.01 in   Mostly Cloudy
1:35 AM 51.8 °F - 48.2 °F 88% 29.96 in 7.0 mi West 4.6 mph - 0.02 in   Overcast
1:55 AM 51.8 °F - 48.2 °F 88% 29.96 in 10.0 mi SSW 4.6 mph - 0.04 in   Overcast
2:15 AM 51.8 °F - 50.0 °F 94% 29.96 in 8.0 mi SW 5.8 mph - 0.04 in   Overcast
2:35 AM 51.8 °F - 50.0 °F 94% 29.96 in 5.0 mi WSW 5.8 mph - 0.06 in   Overcast
2:55 AM 51.8 °F - 48.2 °F 88% 29.96 in 10.0 mi West 8.1 mph - 0.10 in   Overcast
3:15 AM 51.8 °F - 48.2 °F 88% 29.96 in 10.0 mi West 10.4 mph - 0.04 in   Overcast
3:35 AM 46.4 °F 38.3 °F 44.6 °F 93% 29.98 in 10.0 mi WNW 23.0 mph 29.9 mph 0.11 in   Overcast
3:55 AM 44.6 °F 36.9 °F 41.0 °F 87% 29.97 in 10.0 mi WNW 18.4 mph 26.5 mph 0.15 in   Overcast
4:15 AM 42.8 °F 34.8 °F 39.2 °F 87% 29.98 in 9.0 mi WNW 17.3 mph - 0.02 in   Overcast
4:35 AM 42.8 °F 34.5 °F 39.2 °F 87% 30.01 in 7.0 mi WNW 18.4 mph 21.9 mph 0.06 in   Overcast
4:55 AM 42.8 °F 35.1 °F 39.2 °F 87% 30.00 in 8.0 mi WNW 16.1 mph 23.0 mph 0.06 in   Overcast
5:15 AM 41.0 °F 32.5 °F 39.2 °F 93% 30.02 in 10.0 mi WNW 17.3 mph 20.7 mph 0.01 in   Overcast
5:35 AM 39.2 °F 30.8 °F 37.4 °F 93% 30.01 in 9.0 mi WNW 15.0 mph - 0.01 in   Overcast
5:55 AM 39.2 °F 30.2 °F 37.4 °F 93% 30.00 in 10.0 mi WNW 17.3 mph - 0.02 in   Overcast
6:15 AM 39.2 °F 30.2 °F 35.6 °F 87% 30.05 in 10.0 mi WNW 17.3 mph 23.0 mph N/A   Overcast
6:55 AM 37.4 °F 26.4 °F 35.6 °F 93% 30.05 in 10.0 mi WNW 23.0 mph - N/A   Overcast
7:15 AM 37.4 °F 25.9 °F 35.6 °F 93% 30.08 in 10.0 mi WNW 25.3 mph 29.9 mph N/A   Overcast
7:35 AM 35.6 °F 24.8 °F 32.0 °F 87% 30.09 in 7.0 mi WNW 19.6 mph 25.3 mph N/A   Overcast
7:55 AM 35.6 °F 25.2 °F 33.8 °F 93% 30.10 in 4.0 mi WNW 18.4 mph - N/A   Overcast
8:15 AM 33.8 °F 21.6 °F 30.2 °F 87% 30.11 in 2.0 mi West 23.0 mph 27.6 mph 0.01 in   Overcast
8:35 AM 32.0 °F 20.5 °F 28.4 °F 87% 30.12 in 1.5 mi WNW 18.4 mph 26.5 mph 0.01 in   Overcast
8:55 AM 32.0 °F 19.8 °F 30.2 °F 93% 30.13 in 6.0 mi West 20.7 mph 25.3 mph 0.01 in   Overcast
9:15 AM 32.0 °F 19.8 °F 30.2 °F 93% 30.13 in 10.0 mi WNW 20.7 mph - N/A   Overcast
10:15 AM 33.8 °F 22.8 °F 28.4 °F 81% 30.16 in 10.0 mi West 18.4 mph - N/A   Overcast
10:35 AM 33.8 °F 22.5 °F 28.4 °F 81% 30.17 in 10.0 mi West 19.6 mph 24.2 mph N/A   Overcast
10:55 AM 33.8 °F 22.2 °F 28.4 °F 81% 30.16 in 10.0 mi West 20.7 mph 26.5 mph N/A   Overcast
11:15 AM 35.6 °F 24.2 °F 28.4 °F 75% 30.16 in 10.0 mi WNW 21.9 mph 27.6 mph N/A   Mostly Cloudy
11:35 AM 35.6 °F 23.7 °F 28.4 °F 75% 30.15 in 10.0 mi WNW 24.2 mph - N/A   Partly Cloudy
11:55 AM 35.6 °F 24.0 °F 28.4 °F 75% 30.15 in 10.0 mi WNW 23.0 mph 27.6 mph N/A   Partly Cloudy
12:15 PM 35.6 °F 24.2 °F 28.4 °F 75% 30.16 in 10.0 mi WNW 21.9 mph 28.8 mph N/A   Scattered Clouds
12:35 PM 37.4 °F 26.4 °F 28.4 °F 70% 30.16 in 10.0 mi West 23.0 mph 27.6 mph N/A   Partly Cloudy
12:55 PM 37.4 °F 27.5 °F 28.4 °F 70% 30.16 in 10.0 mi West 18.4 mph 28.8 mph N/A   Scattered Clouds
1:15 PM 37.4 °F 26.6 °F 26.6 °F 65% 30.17 in 10.0 mi West 21.9 mph 27.6 mph N/A   Scattered Clouds
1:35 PM 37.4 °F 26.4 °F 28.4 °F 70% 30.17 in 10.0 mi WNW 23.0 mph 31.1 mph N/A   Scattered Clouds
1:55 PM 37.4 °F 27.2 °F 26.6 °F 65% 30.17 in 10.0 mi West 19.6 mph 27.6 mph N/A   Partly Cloudy
2:15 PM 37.4 °F 26.9 °F 26.6 °F 65% 30.17 in 10.0 mi West 20.7 mph - N/A   Clear
2:35 PM 37.4 °F 26.6 °F 26.6 °F 65% 30.18 in 10.0 mi West 21.9 mph 27.6 mph N/A   Clear
2:55 PM 37.4 °F 26.6 °F 24.8 °F 60% 30.19 in 10.0 mi West 21.9 mph 27.6 mph N/A   Clear
3:15 PM 37.4 °F 27.2 °F 26.6 °F 65% 30.20 in 10.0 mi West 19.6 mph - N/A   Clear
3:35 PM 35.6 °F 24.8 °F 24.8 °F 65% 30.21 in 10.0 mi West 19.6 mph 26.5 mph N/A   Clear
4:35 PM 33.8 °F 24.8 °F 24.8 °F 70% 30.24 in 10.0 mi West 12.7 mph - N/A   Clear
4:55 PM 33.8 °F 25.8 °F 24.8 °F 70% 30.25 in 10.0 mi West 10.4 mph - N/A   Clear
5:15 PM 33.8 °F 25.3 °F 24.8 °F 70% 30.26 in 10.0 mi West 11.5 mph - N/A   Partly Cloudy
5:35 PM 33.8 °F 26.4 °F 24.8 °F 70% 30.27 in 10.0 mi West 9.2 mph - N/A   Clear
5:55 PM 33.8 °F 25.3 °F 26.6 °F 75% 30.27 in 10.0 mi West 11.5 mph - N/A   Clear
6:15 PM 33.8 °F 25.8 °F 24.8 °F 70% 30.28 in 10.0 mi West 10.4 mph - N/A   Clear
6:35 PM 33.8 °F 24.8 °F 24.8 °F 70% 30.29 in 10.0 mi West 12.7 mph - N/A   Clear
6:55 PM 33.8 °F 25.3 °F 24.8 °F 70% 30.29 in 10.0 mi WSW 11.5 mph - N/A   Clear
7:15 PM 33.8 °F 24.8 °F 24.8 °F 70% 30.30 in 10.0 mi WSW 12.7 mph - N/A   Clear
7:35 PM 33.8 °F 24.8 °F 24.8 °F 70% 30.31 in 10.0 mi WSW 12.7 mph - N/A   Clear
7:55 PM 33.8 °F 25.8 °F 24.8 °F 70% 30.32 in 10.0 mi WSW 10.4 mph - N/A   Mostly Cloudy
8:35 PM 33.8 °F 25.3 °F 24.8 °F 70% 30.33 in 10.0 mi WSW 11.5 mph - N/A   Overcast
8:55 PM 33.8 °F 24.8 °F 24.8 °F 70% 30.33 in 10.0 mi WSW 12.7 mph - N/A   Overcast
9:15 PM 33.8 °F 25.3 °F 26.6 °F 75% 30.34 in 10.0 mi WSW 11.5 mph - N/A   Overcast
9:35 PM 33.8 °F 25.3 °F 26.6 °F 75% 30.34 in 10.0 mi WSW 11.5 mph - N/A   Overcast
9:55 PM 33.8 °F 25.3 °F 24.8 °F 70% 30.34 in 10.0 mi WSW 11.5 mph - N/A   Overcast
10:15 PM 33.8 °F 25.8 °F 26.6 °F 75% 30.34 in 10.0 mi West 10.4 mph - N/A   Overcast
10:35 PM 33.8 °F 24.8 °F 26.6 °F 75% 30.35 in 10.0 mi West 12.7 mph - N/A   Overcast
10:55 PM 33.8 °F 25.8 °F 26.6 °F 75% 30.35 in 10.0 mi West 10.4 mph - N/A   Overcast
11:15 PM 33.8 °F 25.3 °F 24.8 °F 70% 30.35 in 10.0 mi West 11.5 mph - N/A   Overcast
11:35 PM 33.8 °F 25.8 °F 26.6 °F 75% 30.35 in 10.0 mi West 10.4 mph - N/A   Mostly Cloudy
11:55 PM 33.8 °F 25.8 °F 26.6 °F 75% 30.35 in 10.0 mi West 10.4 mph - N/A   Overcast